THY1978 EIDW-LTFM

Flight info

Callsign THY1978
Flight time 3h 53m
Altitude 35000
Route DEXEN4E DEXEN DCT SAWPE Q63 CPT UL9 BIG L15 MOTOX DCT RENSA DCT EDJAR DCT LUPEN T107 LELTA Y161 MAH L173 EBEDA L603 UNKEN DCT VAMET DCT LAKIK DCT RISTU DCT ETIDA T390 RILEX
Aircraft A321/M-SDE3FGHIRWY/LB1

Departure

Time 2026-05-04 12:34
Airport Dublin Airport (EIDW)

Arrival

Time 2026-05-04 16:28
Airport İstanbul Airport (LTFM)
Time Latitude Longitude Altitude Speed Heading
2026-05-04 11:34 53.42761 -6.24621 257 ft 0 kts 332°
2026-05-04 11:36 53.43268 -6.24537 257 ft 0 kts
2026-05-04 11:36 53.42657 -6.24692 257 ft 0 kts 147°
2026-05-04 12:20 53.42658 -6.24694 256 ft 1 kts 147°
2026-05-04 12:20 53.42672 -6.24708 256 ft 3 kts 153°
2026-05-04 12:20 53.42691 -6.24721 256 ft 3 kts 167°
2026-05-04 12:21 53.42710 -6.24725 256 ft 3 kts 195°
2026-05-04 12:21 53.42724 -6.24713 256 ft 2 kts 242°
2026-05-04 12:21 53.42725 -6.24708 256 ft 0 kts 248°
2026-05-04 12:25 53.42723 -6.24718 256 ft 2 kts 248°
2026-05-04 12:25 53.42714 -6.24753 256 ft 4 kts 249°
2026-05-04 12:25 53.42703 -6.24819 256 ft 7 kts 259°
2026-05-04 12:25 53.42715 -6.24898 256 ft 8 kts 306°
2026-05-04 12:26 53.42763 -6.24946 256 ft 9 kts 339°
2026-05-04 12:26 53.42769 -6.24950 256 ft 0 kts 338°
2026-05-04 12:26 53.42772 -6.24952 256 ft 1 kts 338°
2026-05-04 12:26 53.42782 -6.24966 256 ft 3 kts 297°
2026-05-04 12:27 53.42774 -6.25021 256 ft 6 kts 247°
2026-05-04 12:27 53.42755 -6.25095 256 ft 8 kts 256°
2026-05-04 12:27 53.42756 -6.25194 256 ft 9 kts 276°
2026-05-04 12:27 53.42764 -6.25321 256 ft 12 kts 276°
2026-05-04 12:28 53.42774 -6.25472 256 ft 14 kts 274°
2026-05-04 12:28 53.42730 -6.25612 256 ft 15 kts 226°
2026-05-04 12:28 53.42656 -6.25738 256 ft 16 kts 225°
2026-05-04 12:28 53.42573 -6.25882 256 ft 18 kts 226°
2026-05-04 12:29 53.42483 -6.26041 256 ft 20 kts 226°
2026-05-04 12:29 53.42385 -6.26212 256 ft 21 kts 226°
2026-05-04 12:29 53.42279 -6.26396 256 ft 22 kts 232°
2026-05-04 12:29 53.42262 -6.26648 256 ft 23 kts 276°
2026-05-04 12:30 53.42279 -6.26920 256 ft 24 kts 275°
2026-05-04 12:30 53.42295 -6.27207 256 ft 25 kts 276°
2026-05-04 12:30 53.42314 -6.27507 256 ft 26 kts 276°
2026-05-04 12:30 53.42334 -6.27818 256 ft 27 kts 275°
2026-05-04 12:31 53.42353 -6.28139 256 ft 28 kts 276°
2026-05-04 12:31 53.42374 -6.28470 256 ft 29 kts 275°
2026-05-04 12:31 53.42391 -6.28810 256 ft 28 kts 276°
2026-05-04 12:31 53.42370 -6.29041 256 ft 11 kts 235°
2026-05-04 12:32 53.42332 -6.29063 256 ft 0 kts 175°
2026-05-04 12:32 53.42331 -6.29063 256 ft 1 kts 175°
2026-05-04 12:32 53.42297 -6.29058 256 ft 8 kts 174°
2026-05-04 12:33 53.42246 -6.29010 256 ft 9 kts 110°
2026-05-04 12:33 53.42242 -6.28969 256 ft 1 kts 94°
2026-05-04 12:33 53.42240 -6.28946 256 ft 3 kts 94°
2026-05-04 12:33 53.42238 -6.28899 256 ft 6 kts 94°
2026-05-04 12:34 53.42224 -6.28572 256 ft 62 kts 94°
2026-05-04 12:34 53.42169 -6.27468 257 ft 126 kts 93°
2026-05-04 12:34 53.42070 -6.25749 324 ft 162 kts 86°
2026-05-04 12:34 53.42134 -6.23945 995 ft 147 kts 78°
2026-05-04 12:35 53.42310 -6.22307 1574 ft 142 kts 81°
2026-05-04 12:35 53.42243 -6.20683 1902 ft 145 kts 104°
2026-05-04 12:35 53.41905 -6.19026 2060 ft 160 kts 105°
2026-05-04 12:35 53.41603 -6.17077 2204 ft 181 kts 99°
2026-05-04 12:36 53.41420 -6.14840 2367 ft 206 kts 94°
2026-05-04 12:36 53.41296 -6.12313 2618 ft 228 kts 92°
2026-05-04 12:36 53.41174 -6.09545 2983 ft 246 kts 93°
2026-05-04 12:36 53.41013 -6.06628 3447 ft 258 kts 94°
2026-05-04 12:37 53.40799 -6.03598 4073 ft 264 kts 100°
2026-05-04 12:37 53.40071 -6.00767 4708 ft 269 kts 126°
2026-05-04 12:37 53.38823 -5.98413 5398 ft 271 kts 134°
2026-05-04 12:37 53.37499 -5.96198 6062 ft 274 kts 134°
2026-05-04 12:38 53.36183 -5.93857 6719 ft 277 kts 131°
2026-05-04 12:38 53.34890 -5.91391 7364 ft 280 kts 130°
2026-05-04 12:38 53.33626 -5.88931 7987 ft 284 kts 130°
2026-05-04 12:38 53.32351 -5.86377 8595 ft 287 kts 124°
2026-05-04 12:39 53.31538 -5.83336 9177 ft 289 kts 103°
2026-05-04 12:39 53.31170 -5.80020 9806 ft 291 kts 97°
2026-05-04 12:39 53.30899 -5.76647 10405 ft 294 kts 96°
2026-05-04 12:39 53.30593 -5.73203 10772 ft 307 kts 98°
2026-05-04 12:40 53.30215 -5.69581 10984 ft 324 kts 99°
2026-05-04 12:40 53.29788 -5.65800 11262 ft 337 kts 100°
2026-05-04 12:40 53.29350 -5.62005 11750 ft 342 kts 99°
2026-05-04 12:40 53.28898 -5.57998 12341 ft 344 kts 99°
2026-05-04 12:41 53.28464 -5.54040 12876 ft 347 kts 99°
2026-05-04 12:41 53.27902 -5.50103 13382 ft 351 kts 109°
2026-05-04 12:41 53.26758 -5.46468 13787 ft 358 kts 121°
2026-05-04 12:41 53.25352 -5.43034 14036 ft 369 kts 124°
2026-05-04 12:42 53.23821 -5.39552 14439 ft 373 kts 125°
2026-05-04 12:42 53.22286 -5.36049 14938 ft 375 kts 124°
2026-05-04 12:42 53.20778 -5.32479 15414 ft 377 kts 123°
2026-05-04 12:42 53.19299 -5.28851 15877 ft 379 kts 122°
2026-05-04 12:43 53.17826 -5.25194 16332 ft 381 kts 122°
2026-05-04 12:43 53.16334 -5.21520 16777 ft 383 kts 123°
2026-05-04 12:43 53.14826 -5.17860 17207 ft 385 kts 123°
2026-05-04 12:43 53.13290 -5.14180 17633 ft 387 kts 123°
2026-05-04 12:44 53.11751 -5.10498 18052 ft 389 kts 123°
2026-05-04 12:44 53.10207 -5.06796 18460 ft 391 kts 123°
2026-05-04 12:44 53.08673 -5.03106 18854 ft 393 kts 123°
2026-05-04 12:44 53.07113 -4.99345 19250 ft 395 kts 123°
2026-05-04 12:45 53.05544 -4.95582 19637 ft 397 kts 123°
2026-05-04 12:45 53.03962 -4.91807 20005 ft 399 kts 123°
2026-05-04 12:45 53.02373 -4.88009 20370 ft 401 kts 123°
2026-05-04 12:45 53.00780 -4.84187 20731 ft 403 kts 123°
2026-05-04 12:46 52.99171 -4.80365 21078 ft 405 kts 123°
2026-05-04 12:46 52.97559 -4.76526 21420 ft 407 kts 123°
2026-05-04 12:46 52.95941 -4.72669 21755 ft 409 kts 123°
2026-05-04 12:46 52.94304 -4.68790 22085 ft 410 kts 123°
2026-05-04 12:47 52.92664 -4.64914 22404 ft 412 kts 123°
2026-05-04 12:47 52.91012 -4.61014 22718 ft 414 kts 123°
2026-05-04 12:47 52.89350 -4.57099 23022 ft 416 kts 123°
2026-05-04 12:47 52.87702 -4.53218 23319 ft 418 kts 123°
2026-05-04 12:48 52.86026 -4.49261 23612 ft 420 kts 123°
2026-05-04 12:48 52.84350 -4.45305 23897 ft 422 kts 123°
2026-05-04 12:48 52.82654 -4.41328 24173 ft 423 kts 123°
2026-05-04 12:48 52.80952 -4.37347 24460 ft 425 kts 123°
2026-05-04 12:49 52.79245 -4.33361 24743 ft 426 kts 123°
2026-05-04 12:49 52.77531 -4.29358 25027 ft 427 kts 123°
2026-05-04 12:49 52.75811 -4.25344 25305 ft 428 kts 123°
2026-05-04 12:49 52.74091 -4.21338 25582 ft 429 kts 123°
2026-05-04 12:50 52.72355 -4.17298 25844 ft 430 kts 123°
2026-05-04 12:50 52.70647 -4.13320 26109 ft 431 kts 123°
2026-05-04 12:50 52.68907 -4.09294 26363 ft 432 kts 123°
2026-05-04 12:50 52.67158 -4.05246 26617 ft 433 kts 123°
2026-05-04 12:51 52.65414 -4.01200 26864 ft 434 kts 123°
2026-05-04 12:51 52.63655 -3.97148 27090 ft 435 kts 123°
2026-05-04 12:51 52.61885 -3.93087 27305 ft 437 kts 123°
2026-05-04 12:51 52.60114 -3.89022 27583 ft 437 kts 123°
2026-05-04 12:52 52.58346 -3.84962 27846 ft 437 kts 123°
2026-05-04 12:52 52.56573 -3.80884 28023 ft 439 kts 123°
2026-05-04 12:52 52.54791 -3.76797 28202 ft 441 kts 123°
2026-05-04 12:52 52.53108 -3.72961 28414 ft 441 kts 124°
2026-05-04 12:53 52.51296 -3.68892 28642 ft 441 kts 123°
2026-05-04 12:53 52.49497 -3.64795 28825 ft 443 kts 123°
2026-05-04 12:53 52.47704 -3.60679 29016 ft 443 kts 123°
2026-05-04 12:53 52.45907 -3.56558 29198 ft 444 kts 123°
2026-05-04 12:54 52.44097 -3.52446 29423 ft 444 kts 123°
2026-05-04 12:54 52.42283 -3.48358 29676 ft 442 kts 123°
2026-05-04 12:54 52.40481 -3.44296 29914 ft 441 kts 123°
2026-05-04 12:54 52.38676 -3.40233 30134 ft 441 kts 123°
2026-05-04 12:55 52.36875 -3.36176 30327 ft 441 kts 123°
2026-05-04 12:55 52.35074 -3.32107 30519 ft 441 kts 123°
2026-05-04 12:55 52.33273 -3.28048 30713 ft 440 kts 123°
2026-05-04 12:55 52.31486 -3.24057 30889 ft 441 kts 124°
2026-05-04 12:56 52.29671 -3.20022 31070 ft 441 kts 124°
2026-05-04 12:56 52.27860 -3.15975 31242 ft 441 kts 124°
2026-05-04 12:56 52.26054 -3.11929 31409 ft 441 kts 124°
2026-05-04 12:56 52.24242 -3.07884 31578 ft 441 kts 124°
2026-05-04 12:57 52.22422 -3.03848 31745 ft 441 kts 124°
2026-05-04 12:57 52.20601 -2.99808 31897 ft 441 kts 124°
2026-05-04 12:57 52.18784 -2.95789 32060 ft 441 kts 124°
2026-05-04 12:57 52.16973 -2.91764 32239 ft 441 kts 124°
2026-05-04 12:58 52.15156 -2.87730 32387 ft 441 kts 125°
2026-05-04 12:58 52.13331 -2.83709 32542 ft 441 kts 125°
2026-05-04 12:58 52.11503 -2.79694 32698 ft 441 kts 125°
2026-05-04 12:58 52.09677 -2.75694 32838 ft 441 kts 125°
2026-05-04 12:59 52.07858 -2.71707 32986 ft 441 kts 125°
2026-05-04 12:59 52.06013 -2.67658 33135 ft 441 kts 125°
2026-05-04 12:59 52.04211 -2.63699 33288 ft 441 kts 125°
2026-05-04 12:59 52.02449 -2.59830 33405 ft 441 kts 126°
2026-05-04 13:00 52.00549 -2.55691 33567 ft 441 kts 126°
2026-05-04 13:00 51.98720 -2.51707 33693 ft 441 kts 126°
2026-05-04 13:00 51.96881 -2.47710 33815 ft 441 kts 126°
2026-05-04 13:00 51.95047 -2.43724 33947 ft 441 kts 126°
2026-05-04 13:01 51.93230 -2.39794 34078 ft 440 kts 127°
2026-05-04 13:01 51.91396 -2.35822 34196 ft 440 kts 127°
2026-05-04 13:01 51.89560 -2.31850 34309 ft 440 kts 127°
2026-05-04 13:02 51.85875 -2.23899 34505 ft 441 kts 127°
2026-05-04 13:02 51.82187 -2.15953 34684 ft 442 kts 127°
2026-05-04 13:02 51.80338 -2.11981 34788 ft 442 kts 127°
2026-05-04 13:03 51.78489 -2.08023 34893 ft 442 kts 127°
2026-05-04 13:03 51.76618 -2.04036 34995 ft 442 kts 127°
2026-05-04 13:03 51.74763 -2.00085 35044 ft 442 kts 127°
2026-05-04 13:04 51.71077 -1.92216 35049 ft 442 kts 127°
2026-05-04 13:04 51.68478 -1.86658 35051 ft 442 kts 127°
2026-05-04 13:05 51.64159 -1.77498 35051 ft 442 kts 127°
2026-05-04 13:05 51.61031 -1.70917 35051 ft 442 kts 127°
2026-05-04 13:06 51.57805 -1.62612 35017 ft 442 kts 112°
2026-05-04 13:06 51.55784 -1.53296 34999 ft 441 kts 108°
2026-05-04 13:07 51.53909 -1.43906 34994 ft 440 kts 109°
2026-05-04 13:07 51.51899 -1.34611 34993 ft 440 kts 110°
2026-05-04 13:08 51.49866 -1.25349 34980 ft 440 kts 110°
2026-05-04 13:08 51.48356 -1.15927 34989 ft 440 kts 102°
2026-05-04 13:09 51.47217 -1.06284 34983 ft 440 kts 102°
2026-05-04 13:09 51.46056 -0.96670 34977 ft 439 kts 102°
2026-05-04 13:10 51.44840 -0.87103 34980 ft 440 kts 102°
2026-05-04 13:10 51.43620 -0.77480 34981 ft 441 kts 103°
2026-05-04 13:11 51.42398 -0.67842 34978 ft 442 kts 103°
2026-05-04 13:11 51.41165 -0.58163 34983 ft 443 kts 103°
2026-05-04 13:12 51.39922 -0.48505 34982 ft 444 kts 103°
2026-05-04 13:12 51.38665 -0.38856 34980 ft 445 kts 103°
2026-05-04 13:13 51.37409 -0.29191 34987 ft 444 kts 103°
2026-05-04 13:13 51.36139 -0.19486 34978 ft 444 kts 103°
2026-05-04 13:14 51.34863 -0.09835 34982 ft 444 kts 103°
2026-05-04 13:14 51.33576 -0.00174 34979 ft 443 kts 103°
2026-05-04 13:15 51.31752 0.09180 34998 ft 440 kts 114°
2026-05-04 13:15 51.29375 0.18262 35033 ft 444 kts 116°
2026-05-04 13:16 51.26992 0.27340 35036 ft 448 kts 114°
2026-05-04 13:16 51.24668 0.36610 35032 ft 449 kts 114°
2026-05-04 13:17 51.22313 0.45834 35033 ft 449 kts 115°
2026-05-04 13:17 51.19917 0.55045 35032 ft 448 kts 115°
2026-05-04 13:18 51.17553 0.64184 35033 ft 449 kts 115°
2026-05-04 13:18 51.15175 0.73365 35030 ft 449 kts 115°
2026-05-04 13:19 51.12778 0.82546 35003 ft 448 kts 116°
2026-05-04 13:19 51.10375 0.91704 34983 ft 448 kts 116°
2026-05-04 13:20 51.07984 1.00815 34978 ft 447 kts 116°
2026-05-04 13:20 51.05581 1.09896 34978 ft 446 kts 116°
2026-05-04 13:21 51.03157 1.19014 34983 ft 446 kts 116°
2026-05-04 13:21 51.00739 1.28083 34979 ft 446 kts 116°
2026-05-04 13:22 50.98325 1.37141 34972 ft 446 kts 116°
2026-05-04 13:22 50.95866 1.46164 34967 ft 444 kts 120°
2026-05-04 13:23 50.92753 1.54548 34976 ft 440 kts 126°
2026-05-04 13:23 50.89486 1.62672 34971 ft 441 kts 126°
2026-05-04 13:24 50.86237 1.70930 34972 ft 441 kts 126°
2026-05-04 13:24 50.82999 1.79194 34976 ft 441 kts 126°
2026-05-04 13:25 50.78099 1.91530 34974 ft 441 kts 126°
2026-05-04 13:25 50.74866 1.99683 34968 ft 441 kts 126°
2026-05-04 13:26 50.71592 2.07884 34969 ft 441 kts 127°
2026-05-04 13:26 50.68315 2.16093 34964 ft 442 kts 127°
2026-05-04 13:27 50.65026 2.24281 34966 ft 442 kts 127°
2026-05-04 13:27 50.61783 2.32361 34960 ft 442 kts 127°
2026-05-04 13:28 50.58483 2.40533 34962 ft 442 kts 127°
2026-05-04 13:28 50.55184 2.48675 34948 ft 442 kts 127°
2026-05-04 13:29 50.51877 2.56805 34935 ft 441 kts 127°
2026-05-04 13:29 50.48568 2.64923 34927 ft 441 kts 127°
2026-05-04 13:30 50.45276 2.73000 34929 ft 441 kts 127°
2026-05-04 13:30 50.41960 2.81097 34923 ft 441 kts 128°
2026-05-04 13:31 50.38645 2.89131 34927 ft 441 kts 128°
2026-05-04 13:31 50.35317 2.97193 34923 ft 441 kts 128°
2026-05-04 13:32 50.31987 3.05246 34925 ft 441 kts 128°
2026-05-04 13:32 50.28643 3.13295 34921 ft 441 kts 128°
2026-05-04 13:33 50.25298 3.21336 34923 ft 441 kts 128°
2026-05-04 13:33 50.21958 3.29354 34927 ft 440 kts 128°
2026-05-04 13:34 50.18622 3.37294 34922 ft 440 kts 128°
2026-05-04 13:34 50.15249 3.45319 34926 ft 439 kts 128°
2026-05-04 13:35 50.10253 3.57177 34929 ft 437 kts 129°
2026-05-04 13:36 50.06904 3.65086 34928 ft 437 kts 129°
2026-05-04 13:36 50.03558 3.72969 34932 ft 436 kts 129°
2026-05-04 13:37 50.00206 3.80839 34929 ft 436 kts 129°
2026-05-04 13:37 49.96851 3.88697 34934 ft 436 kts 129°
2026-05-04 13:38 49.93490 3.96549 34934 ft 436 kts 129°
2026-05-04 13:38 49.90139 4.04332 34931 ft 436 kts 129°
2026-05-04 13:39 49.86771 4.12151 34936 ft 436 kts 129°
2026-05-04 13:39 49.83397 4.19965 34930 ft 436 kts 129°
2026-05-04 13:40 49.80012 4.27760 34937 ft 436 kts 129°
2026-05-04 13:40 49.76629 4.35548 34932 ft 436 kts 129°
2026-05-04 13:41 49.73241 4.43320 34935 ft 436 kts 129°
2026-05-04 13:41 49.69861 4.51033 34936 ft 435 kts 130°
2026-05-04 13:42 49.64764 4.62647 34935 ft 435 kts 130°
2026-05-04 13:42 49.61367 4.70360 34933 ft 435 kts 130°
2026-05-04 13:43 49.57962 4.78075 34937 ft 435 kts 130°
2026-05-04 13:43 49.54571 4.85799 34932 ft 436 kts 127°
2026-05-04 13:44 49.53204 4.90014 34924 ft 444 kts 116°
2026-05-04 13:44 49.52354 4.94619 34927 ft 450 kts 108°
2026-05-04 13:44 49.51195 5.04061 34917 ft 453 kts 105°
2026-05-04 13:45 49.50011 5.13576 34933 ft 452 kts 108°
2026-05-04 13:45 49.48660 5.22987 34936 ft 452 kts 108°
2026-05-04 13:46 49.47335 5.32473 34936 ft 454 kts 107°
2026-05-04 13:46 49.46053 5.41979 34941 ft 454 kts 107°
2026-05-04 13:47 49.44729 5.51484 34953 ft 455 kts 108°
2026-05-04 13:47 49.43389 5.61000 34956 ft 456 kts 108°
2026-05-04 13:48 49.42052 5.70533 34956 ft 457 kts 108°
2026-05-04 13:48 49.40698 5.80075 34960 ft 458 kts 108°
2026-05-04 13:49 49.38662 5.89126 34961 ft 444 kts 126°
2026-05-04 13:49 49.35029 5.96689 34983 ft 437 kts 135°
2026-05-04 13:50 49.31220 6.03898 34984 ft 438 kts 134°
2026-05-04 13:50 49.27504 6.11337 34978 ft 440 kts 133°
2026-05-04 13:51 49.23824 6.18759 34982 ft 441 kts 133°
2026-05-04 13:51 49.20032 6.26221 34979 ft 441 kts 134°
2026-05-04 13:52 49.14377 6.37357 34979 ft 442 kts 133°
2026-05-04 13:53 49.11243 6.43535 34977 ft 442 kts 133°
2026-05-04 13:53 49.06866 6.52111 34979 ft 442 kts 133°
2026-05-04 13:54 49.01195 6.63188 34976 ft 442 kts 134°
2026-05-04 13:55 48.96149 6.73006 34976 ft 442 kts 133°
2026-05-04 13:55 48.90461 6.84036 34974 ft 442 kts 134°
2026-05-04 13:56 48.86657 6.91377 34978 ft 442 kts 134°
2026-05-04 13:57 48.80949 7.02374 34974 ft 441 kts 134°
2026-05-04 13:58 48.73338 7.16952 34963 ft 441 kts 134°
2026-05-04 13:58 48.67635 7.27822 34961 ft 441 kts 134°
2026-05-04 13:59 48.63819 7.35071 34957 ft 440 kts 134°
2026-05-04 14:00 48.58083 7.45937 34954 ft 440 kts 134°
2026-05-04 14:00 48.52362 7.56723 34954 ft 440 kts 134°
2026-05-04 14:01 48.48529 7.63932 34951 ft 440 kts 134°
2026-05-04 14:01 48.44984 7.71508 34936 ft 449 kts 121°
2026-05-04 14:02 48.43904 7.75948 34940 ft 456 kts 107°
2026-05-04 14:02 48.43533 7.80712 34951 ft 464 kts 94°
2026-05-04 14:02 48.43667 7.85589 34988 ft 466 kts 90°
2026-05-04 14:03 48.44114 7.95339 34965 ft 467 kts 90°
2026-05-04 14:03 48.44356 8.05132 34955 ft 467 kts 92°
2026-05-04 14:04 48.44627 8.19851 34949 ft 470 kts 91°
2026-05-04 14:04 48.44883 8.29682 34944 ft 471 kts 91°
2026-05-04 14:05 48.45183 8.44412 34941 ft 472 kts 92°
2026-05-04 14:06 48.45382 8.54315 34940 ft 472 kts 91°
2026-05-04 14:06 48.45578 8.64138 34940 ft 471 kts 91°
2026-05-04 14:07 48.45758 8.74011 34932 ft 471 kts 92°
2026-05-04 14:07 48.45930 8.83861 34936 ft 471 kts 92°
2026-05-04 14:08 48.46096 8.93715 35019 ft 472 kts 92°
2026-05-04 14:08 48.46176 8.98661 35143 ft 472 kts 92°
2026-05-04 14:08 48.46213 9.03606 35252 ft 472 kts 93°
2026-05-04 14:08 48.46224 9.08568 35363 ft 472 kts 93°
2026-05-04 14:09 48.46230 9.18462 35631 ft 471 kts 93°
2026-05-04 14:10 48.46245 9.33216 35919 ft 471 kts 93°
2026-05-04 14:10 48.46245 9.38136 36027 ft 470 kts 93°
2026-05-04 14:10 48.46241 9.43075 36123 ft 470 kts 93°
2026-05-04 14:11 48.46229 9.52937 36290 ft 470 kts 93°
2026-05-04 14:11 48.46207 9.62799 36432 ft 471 kts 93°
2026-05-04 14:11 48.46195 9.67708 36538 ft 470 kts 93°
2026-05-04 14:12 48.46197 9.77501 36684 ft 470 kts 92°
2026-05-04 14:12 48.46267 9.87341 36821 ft 470 kts 92°
2026-05-04 14:13 48.46289 9.92282 36871 ft 470 kts 92°
2026-05-04 14:13 48.46297 10.02112 36961 ft 469 kts 92°
2026-05-04 14:14 48.46303 10.11974 36972 ft 470 kts 92°
2026-05-04 14:14 48.46310 10.26736 36979 ft 470 kts 92°
2026-05-04 14:15 48.46283 10.46247 36980 ft 469 kts 92°
2026-05-04 14:16 48.46338 10.60956 36924 ft 468 kts 87°
2026-05-04 14:17 48.47575 10.75529 36922 ft 467 kts 84°
2026-05-04 14:18 48.48448 10.90126 36908 ft 468 kts 98°
2026-05-04 14:18 48.46484 10.99350 36923 ft 457 kts 124°
2026-05-04 14:19 48.42404 11.06527 36992 ft 450 kts 139°
2026-05-04 14:19 48.37962 11.13105 37007 ft 452 kts 139°
2026-05-04 14:20 48.33594 11.19904 37008 ft 451 kts 137°
2026-05-04 14:20 48.29277 11.26701 36992 ft 449 kts 137°
2026-05-04 14:21 48.25788 11.34501 36904 ft 456 kts 114°
2026-05-04 14:21 48.24875 11.39062 36936 ft 457 kts 106°
2026-05-04 14:21 48.23521 11.48374 36938 ft 461 kts 104°
2026-05-04 14:22 48.22064 11.57760 36937 ft 464 kts 107°
2026-05-04 14:22 48.20435 11.67148 36981 ft 466 kts 107°
2026-05-04 14:23 48.18136 11.81291 36980 ft 464 kts 102°
2026-05-04 14:24 48.17395 11.90893 36965 ft 463 kts 97°
2026-05-04 14:24 48.16835 12.00483 36919 ft 460 kts 97°
2026-05-04 14:25 48.15773 12.09847 36882 ft 453 kts 112°
2026-05-04 14:25 48.12616 12.17757 36917 ft 443 kts 137°
2026-05-04 14:25 48.10397 12.20928 36956 ft 441 kts 141°
2026-05-04 14:26 48.05798 12.27044 36956 ft 444 kts 141°
2026-05-04 14:26 48.01262 12.33378 36949 ft 449 kts 139°
2026-05-04 14:27 47.96738 12.39839 36938 ft 450 kts 140°
2026-05-04 14:27 47.92154 12.46219 36897 ft 449 kts 140°
2026-05-04 14:28 47.87602 12.52522 36883 ft 449 kts 140°
2026-05-04 14:28 47.83072 12.58945 36870 ft 450 kts 135°
2026-05-04 14:29 47.79565 12.66740 36897 ft 457 kts 121°
2026-05-04 14:29 47.76600 12.75155 36941 ft 460 kts 120°
2026-05-04 14:30 47.73566 12.83517 36955 ft 459 kts 121°
2026-05-04 14:31 47.68906 12.95833 36934 ft 457 kts 121°
2026-05-04 14:32 47.62788 13.12274 36875 ft 452 kts 121°
2026-05-04 14:32 47.59723 13.20396 36875 ft 452 kts 121°
2026-05-04 14:33 47.56673 13.28491 36882 ft 455 kts 121°
2026-05-04 14:33 47.53595 13.36638 36898 ft 459 kts 121°
2026-05-04 14:34 47.50460 13.44900 36944 ft 461 kts 121°
2026-05-04 14:34 47.47309 13.53188 36993 ft 461 kts 121°
2026-05-04 14:35 47.44168 13.61421 36994 ft 459 kts 121°
2026-05-04 14:35 47.41035 13.69605 36976 ft 456 kts 121°
2026-05-04 14:36 47.37918 13.77728 36929 ft 454 kts 121°
2026-05-04 14:36 47.34829 13.85748 36918 ft 451 kts 121°
2026-05-04 14:37 47.31725 13.93790 36939 ft 451 kts 121°
2026-05-04 14:37 47.28604 14.01845 36969 ft 454 kts 121°
2026-05-04 14:38 47.25457 14.09944 36983 ft 458 kts 121°
2026-05-04 14:38 47.22279 14.18095 36986 ft 460 kts 121°
2026-05-04 14:39 47.19086 14.26272 36992 ft 461 kts 121°
2026-05-04 14:39 47.15893 14.34408 37005 ft 460 kts 121°
2026-05-04 14:40 47.11109 14.46568 36979 ft 459 kts 121°
2026-05-04 14:40 47.07903 14.54681 36954 ft 459 kts 121°
2026-05-04 14:41 47.04689 14.62789 36952 ft 459 kts 121°
2026-05-04 14:42 46.98269 14.78929 36956 ft 460 kts 121°
2026-05-04 14:42 46.95023 14.87045 36983 ft 463 kts 121°
2026-05-04 14:43 46.91770 14.95162 37043 ft 463 kts 121°
2026-05-04 14:43 46.88512 15.03259 37044 ft 461 kts 121°
2026-05-04 14:44 46.85801 15.09980 37035 ft 460 kts 121°
2026-05-04 14:44 46.82554 15.18018 36998 ft 458 kts 121°
2026-05-04 14:45 46.79318 15.26005 36949 ft 456 kts 121°
2026-05-04 14:45 46.76082 15.33958 36951 ft 454 kts 121°
2026-05-04 14:46 46.72905 15.41920 36957 ft 455 kts 120°
2026-05-04 14:46 46.69736 15.49882 36957 ft 459 kts 121°
2026-05-04 14:47 46.66475 15.57956 36971 ft 464 kts 121°
2026-05-04 14:47 46.63195 15.66068 37029 ft 466 kts 120°
2026-05-04 14:48 46.59914 15.74187 37043 ft 464 kts 121°
2026-05-04 14:48 46.56632 15.82263 37038 ft 462 kts 121°
2026-05-04 14:49 46.53363 15.90284 36997 ft 460 kts 120°
2026-05-04 14:49 46.50112 15.98252 36952 ft 458 kts 120°
2026-05-04 14:50 46.46882 16.06137 36955 ft 456 kts 120°
2026-05-04 14:50 46.43639 16.14028 36964 ft 455 kts 120°
2026-05-04 14:51 46.40387 16.21927 36973 ft 458 kts 120°
2026-05-04 14:51 46.37092 16.29897 36980 ft 463 kts 121°
2026-05-04 14:52 46.33765 16.37921 37025 ft 465 kts 121°
2026-05-04 14:52 46.30432 16.45945 37071 ft 465 kts 121°
2026-05-04 14:53 46.27111 16.53915 37069 ft 463 kts 121°
2026-05-04 14:53 46.23788 16.61864 37050 ft 461 kts 121°
2026-05-04 14:54 46.20468 16.69784 37004 ft 459 kts 121°
2026-05-04 14:54 46.17170 16.77629 36990 ft 456 kts 121°
2026-05-04 14:55 46.13871 16.85458 36988 ft 456 kts 121°
2026-05-04 14:55 46.10570 16.93265 36992 ft 456 kts 121°
2026-05-04 14:56 46.07274 17.01039 36995 ft 460 kts 121°
2026-05-04 14:56 46.03921 17.08927 37030 ft 463 kts 121°
2026-05-04 14:57 46.00548 17.16836 37087 ft 463 kts 121°
2026-05-04 14:57 45.97184 17.24702 37099 ft 461 kts 121°
2026-05-04 14:58 45.93822 17.32545 37074 ft 460 kts 121°
2026-05-04 14:58 45.90470 17.40347 37032 ft 458 kts 121°
2026-05-04 14:59 45.87117 17.48123 37022 ft 456 kts 121°
2026-05-04 15:00 45.82126 17.59658 37023 ft 455 kts 121°
2026-05-04 15:00 45.78784 17.67357 37029 ft 455 kts 121°
2026-05-04 15:01 45.73737 17.78940 37043 ft 459 kts 121°
2026-05-04 15:01 45.70331 17.86732 37091 ft 462 kts 121°
2026-05-04 15:02 45.66919 17.94515 37113 ft 461 kts 121°
2026-05-04 15:02 45.63537 18.02206 37114 ft 459 kts 121°
2026-05-04 15:03 45.60155 18.09900 37076 ft 456 kts 120°
2026-05-04 15:03 45.56874 18.17608 37029 ft 453 kts 120°
2026-05-04 15:04 45.53607 18.25317 37057 ft 455 kts 120°
2026-05-04 15:04 45.50303 18.33062 37073 ft 460 kts 120°
2026-05-04 15:05 45.46956 18.40874 37071 ft 462 kts 120°
2026-05-04 15:05 45.43609 18.48684 37070 ft 462 kts 120°
2026-05-04 15:06 45.40250 18.56496 37058 ft 462 kts 120°
2026-05-04 15:07 45.35224 18.68138 37009 ft 462 kts 120°
2026-05-04 15:07 45.31857 18.75911 37015 ft 462 kts 120°
2026-05-04 15:08 45.28482 18.83679 37010 ft 462 kts 120°
2026-05-04 15:08 45.25104 18.91444 37015 ft 462 kts 120°
2026-05-04 15:09 45.21717 18.99194 37021 ft 462 kts 120°
2026-05-04 15:09 45.18323 19.06945 37022 ft 463 kts 120°
2026-05-04 15:10 45.13221 19.18558 37030 ft 462 kts 120°
2026-05-04 15:11 45.08122 19.30119 37124 ft 463 kts 120°
2026-05-04 15:11 45.04707 19.37833 37301 ft 463 kts 120°
2026-05-04 15:12 45.01283 19.45546 37460 ft 463 kts 120°
2026-05-04 15:12 44.97852 19.53259 37626 ft 463 kts 120°
2026-05-04 15:13 44.94413 19.60964 37742 ft 463 kts 120°
2026-05-04 15:13 44.90979 19.68634 37874 ft 462 kts 120°
2026-05-04 15:14 44.87544 19.76293 38026 ft 462 kts 120°
2026-05-04 15:14 44.84123 19.83898 38132 ft 461 kts 120°
2026-05-04 15:15 44.80682 19.91528 38227 ft 461 kts 120°
2026-05-04 15:15 44.77239 19.99136 38328 ft 460 kts 121°
2026-05-04 15:16 44.73856 20.06781 38466 ft 458 kts 119°
2026-05-04 15:16 44.72209 20.10615 38513 ft 458 kts 119°
2026-05-04 15:17 44.67263 20.22113 38606 ft 458 kts 119°
2026-05-04 15:17 44.62312 20.33534 38690 ft 458 kts 119°
2026-05-04 15:18 44.59000 20.41158 38748 ft 458 kts 119°
2026-05-04 15:19 44.54017 20.52584 38836 ft 457 kts 119°
2026-05-04 15:19 44.49027 20.63979 38890 ft 457 kts 120°
2026-05-04 15:20 44.45699 20.71557 38927 ft 457 kts 120°
2026-05-04 15:20 44.42368 20.79127 38948 ft 457 kts 120°
2026-05-04 15:21 44.39027 20.86692 38972 ft 457 kts 120°
2026-05-04 15:22 44.34021 20.97995 38986 ft 457 kts 120°
2026-05-04 15:22 44.28983 21.09314 39027 ft 457 kts 120°
2026-05-04 15:23 44.25621 21.16847 39043 ft 457 kts 120°
2026-05-04 15:23 44.22257 21.24370 39063 ft 457 kts 120°
2026-05-04 15:24 44.15537 21.39332 39110 ft 456 kts 120°
2026-05-04 15:25 44.12162 21.46823 39116 ft 457 kts 120°
2026-05-04 15:26 44.07081 21.58055 39117 ft 457 kts 120°
2026-05-04 15:26 44.01984 21.69279 39129 ft 457 kts 120°
2026-05-04 15:27 43.96875 21.80480 39082 ft 457 kts 120°
2026-05-04 15:28 43.91783 21.91608 39056 ft 456 kts 120°
2026-05-04 15:29 43.86674 22.02728 39063 ft 455 kts 120°
2026-05-04 15:30 43.74700 22.28629 39061 ft 457 kts 120°
2026-05-04 15:31 43.69554 22.39693 39057 ft 457 kts 120°
2026-05-04 15:32 43.62726 22.57821 39054 ft 455 kts 114°
2026-05-04 15:34 43.55555 22.77231 39038 ft 455 kts 114°
2026-05-04 15:34 43.51240 22.88904 39035 ft 455 kts 115°
2026-05-04 15:35 43.46925 23.00498 39035 ft 455 kts 114°
2026-05-04 15:36 43.42586 23.12123 39035 ft 455 kts 115°
2026-05-04 15:36 43.39692 23.19847 39037 ft 455 kts 115°
2026-05-04 15:37 43.36781 23.27583 39041 ft 455 kts 115°
2026-05-04 15:37 43.33867 23.35317 39040 ft 454 kts 115°
2026-05-04 15:38 43.30958 23.43018 39042 ft 454 kts 115°
2026-05-04 15:38 43.28063 23.50657 39045 ft 454 kts 115°
2026-05-04 15:39 43.25139 23.58348 39043 ft 454 kts 115°
2026-05-04 15:40 43.20752 23.69862 39048 ft 454 kts 115°
2026-05-04 15:40 43.17816 23.77537 39044 ft 454 kts 115°
2026-05-04 15:41 43.14872 23.85215 39048 ft 454 kts 115°
2026-05-04 15:41 43.11923 23.92873 39041 ft 455 kts 115°
2026-05-04 15:42 43.08971 24.00528 39044 ft 455 kts 115°
2026-05-04 15:42 43.06013 24.08181 39050 ft 454 kts 116°
2026-05-04 15:43 43.03058 24.15799 39097 ft 453 kts 116°
2026-05-04 15:43 43.00118 24.23352 39091 ft 452 kts 116°
2026-05-04 15:44 42.97159 24.30938 39049 ft 451 kts 116°
2026-05-04 15:44 42.94210 24.38489 39040 ft 450 kts 116°
2026-05-04 15:45 42.91254 24.46034 39035 ft 450 kts 116°
2026-05-04 15:45 42.88288 24.53581 39034 ft 450 kts 116°
2026-05-04 15:46 42.85347 24.61060 39032 ft 450 kts 116°
2026-05-04 15:46 42.82373 24.68571 39037 ft 450 kts 116°
2026-05-04 15:47 42.79397 24.76103 39019 ft 451 kts 116°
2026-05-04 15:47 42.76418 24.83611 39028 ft 451 kts 116°
2026-05-04 15:48 42.73424 24.91133 39028 ft 451 kts 116°
2026-05-04 15:48 42.68929 25.02406 39026 ft 452 kts 116°
2026-05-04 15:49 42.65938 25.09867 39036 ft 452 kts 116°
2026-05-04 15:49 42.62929 25.17358 39038 ft 452 kts 116°
2026-05-04 15:50 42.59920 25.24845 39029 ft 451 kts 117°
2026-05-04 15:50 42.56904 25.32309 39030 ft 451 kts 117°
2026-05-04 15:51 42.53884 25.39755 39024 ft 451 kts 117°
2026-05-04 15:51 42.50862 25.47216 39014 ft 450 kts 117°
2026-05-04 15:52 42.47835 25.54661 39015 ft 450 kts 117°
2026-05-04 15:52 42.44809 25.62089 39012 ft 450 kts 117°
2026-05-04 15:53 42.41775 25.69504 39014 ft 450 kts 117°
2026-05-04 15:53 42.38756 25.76854 39008 ft 450 kts 117°
2026-05-04 15:54 42.35714 25.84254 39010 ft 450 kts 117°
2026-05-04 15:54 42.32673 25.91659 39011 ft 449 kts 117°
2026-05-04 15:55 42.29628 25.99032 39012 ft 450 kts 117°
2026-05-04 15:55 42.26819 26.05813 39011 ft 450 kts 117°
2026-05-04 15:56 42.23767 26.13178 39009 ft 449 kts 117°
2026-05-04 15:56 42.20705 26.20534 39010 ft 449 kts 117°
2026-05-04 15:57 42.17656 26.27822 39010 ft 448 kts 117°
2026-05-04 15:57 42.14611 26.35118 39012 ft 445 kts 117°
2026-05-04 15:58 42.11584 26.42340 38775 ft 440 kts 117°
2026-05-04 15:58 42.10080 26.45931 38210 ft 442 kts 117°
2026-05-04 15:58 42.08548 26.49573 37390 ft 450 kts 117°
2026-05-04 15:59 42.07002 26.53237 36723 ft 452 kts 117°
2026-05-04 15:59 42.05446 26.56920 36144 ft 452 kts 117°
2026-05-04 15:59 42.03891 26.60602 35585 ft 451 kts 117°
2026-05-04 15:59 42.02350 26.64256 35041 ft 449 kts 117°
2026-05-04 16:00 42.00810 26.67910 34488 ft 447 kts 117°
2026-05-04 16:00 41.99279 26.71527 33918 ft 445 kts 116°
2026-05-04 16:00 41.97744 26.75141 33292 ft 445 kts 116°
2026-05-04 16:00 41.96183 26.78700 32549 ft 448 kts 118°
2026-05-04 16:01 41.94571 26.82272 31905 ft 448 kts 118°
2026-05-04 16:01 41.92945 26.85848 31291 ft 447 kts 118°
2026-05-04 16:01 41.91326 26.89409 30718 ft 446 kts 117°
2026-05-04 16:01 41.89736 26.92975 30204 ft 443 kts 117°
2026-05-04 16:02 41.88151 26.96504 29680 ft 441 kts 117°
2026-05-04 16:02 41.86552 27.00026 29154 ft 440 kts 117°
2026-05-04 16:02 41.83379 27.06975 28107 ft 434 kts 117°
2026-05-04 16:03 41.81809 27.10383 27587 ft 432 kts 117°
2026-05-04 16:03 41.80175 27.13739 27063 ft 430 kts 120°
2026-05-04 16:03 41.78490 27.17041 26542 ft 427 kts 120°
2026-05-04 16:03 41.76905 27.20115 26050 ft 425 kts 120°
2026-05-04 16:04 41.75229 27.23362 25525 ft 422 kts 120°
2026-05-04 16:04 41.71923 27.29798 24477 ft 416 kts 119°
2026-05-04 16:04 41.70165 27.32854 23931 ft 419 kts 128°
2026-05-04 16:05 41.67976 27.35463 23393 ft 419 kts 134°
2026-05-04 16:05 41.65978 27.38233 22878 ft 410 kts 124°
2026-05-04 16:05 41.62467 27.44146 21845 ft 404 kts 123°
2026-05-04 16:06 41.60653 27.47014 21320 ft 403 kts 126°
2026-05-04 16:06 41.55692 27.54137 20538 ft 382 kts 127°
2026-05-04 16:07 41.53296 27.57624 19968 ft 377 kts 126°
2026-05-04 16:07 41.48112 27.65333 18638 ft 371 kts 126°
2026-05-04 16:08 41.46380 27.67873 18194 ft 368 kts 126°
2026-05-04 16:08 41.41246 27.75385 16853 ft 362 kts 126°
2026-05-04 16:09 41.37878 27.80317 15945 ft 359 kts 126°
2026-05-04 16:09 41.34450 27.85334 14365 ft 375 kts 127°
2026-05-04 16:10 41.30897 27.90543 13051 ft 379 kts 127°
2026-05-04 16:11 41.25738 27.98004 11887 ft 362 kts 127°
2026-05-04 16:11 41.24029 28.00504 11168 ft 368 kts 127°
2026-05-04 16:12 41.19109 28.07608 10319 ft 329 kts 127°
2026-05-04 16:12 41.14677 28.14032 9363 ft 309 kts 127°
2026-05-04 16:13 41.11769 28.18257 8654 ft 308 kts 128°
2026-05-04 16:13 41.08872 28.22417 7976 ft 306 kts 129°
2026-05-04 16:14 41.06004 28.26538 7349 ft 302 kts 129°
2026-05-04 16:14 41.03169 28.30626 6660 ft 300 kts 129°
2026-05-04 16:15 40.99055 28.36526 6088 ft 281 kts 129°
2026-05-04 16:16 40.97394 28.40728 5653 ft 242 kts 85°
2026-05-04 16:16 40.97625 28.46852 5167 ft 214 kts 84°
2026-05-04 16:17 40.97578 28.50071 4982 ft 210 kts 84°
2026-05-04 16:18 40.97611 28.56363 5002 ft 238 kts 85°
2026-05-04 16:18 40.97602 28.58581 5000 ft 238 kts 85°
2026-05-04 16:19 40.97611 28.65122 4999 ft 238 kts 85°
2026-05-04 16:19 40.97612 28.69442 5005 ft 222 kts 83°
2026-05-04 16:20 40.99627 28.73270 4996 ft 150 kts 11°
2026-05-04 16:20 41.01590 28.73281 5023 ft 139 kts 355°
2026-05-04 16:21 41.04518 28.73191 4705 ft 139 kts 358°
2026-05-04 16:22 41.06445 28.73158 4352 ft 138 kts 358°
2026-05-04 16:22 41.09325 28.73101 3779 ft 136 kts 358°
2026-05-04 16:23 41.12143 28.73037 3190 ft 134 kts 358°
2026-05-04 16:24 41.15966 28.72929 2163 ft 132 kts 355°
2026-05-04 16:25 41.17764 28.72856 1622 ft 125 kts 356°
2026-05-04 16:26 41.21505 28.72803 1188 ft 143 kts 355°
2026-05-04 16:26 41.24486 28.72735 722 ft 139 kts 360°
2026-05-04 16:27 41.26383 28.72775 373 ft 131 kts 355°
2026-05-04 16:28 41.28043 28.72730 340 ft 13 kts 358°
2026-05-04 16:28 41.28384 28.72836 340 ft 10 kts 33°
2026-05-04 16:29 41.28342 28.72959 340 ft 0 kts 180°
2026-05-04 16:31 41.28312 28.72959 340 ft 7 kts 179°
2026-05-04 16:32 41.27998 28.72965 340 ft 23 kts 179°
2026-05-04 16:33 41.27609 28.72972 340 ft 33 kts 179°
2026-05-04 16:33 41.27114 28.72984 340 ft 29 kts 179°
2026-05-04 16:34 41.26949 28.73053 340 ft 10 kts 96°
2026-05-04 16:34 41.26949 28.73174 340 ft 16 kts 89°
2026-05-04 16:35 41.26955 28.73732 340 ft 13 kts 89°
2026-05-04 16:35 41.26956 28.73807 340 ft 7 kts 89°
2026-05-04 16:36 41.26919 28.73855 340 ft 10 kts 179°
2026-05-04 16:36 41.26713 28.73861 340 ft 20 kts 178°
2026-05-04 16:37 41.26576 28.73865 340 ft 2 kts 179°
2026-05-04 16:37 41.26550 28.73865 340 ft 5 kts 179°
2026-05-04 16:37 41.26501 28.73821 340 ft 5 kts 250°
2026-05-04 16:38 41.26489 28.73773 340 ft 0 kts 251°
2026-05-04 16:39 41.26483 28.73750 340 ft 0 kts 250°
2026-05-04 16:40 41.26483 28.73752 340 ft 0 kts 250°